Wetterdaten: Freitag, 01.10.2010
Datum Zeit Temp. A. Feuchte A. Luftdruck Regen Wind Richtung Richtung Sonnenschein UV Solar Windben
01.10.2010 00:00 11,4 C 85 % 1013,4 hPa 0,0 mm 1,9 km/h (1 Bft) O-SO 118 0 min 0 UV-I 0 W/m 8,0 km/h (2 Bft)
01.10.2010 00:10 11,4 C 85 % 1013,4 hPa 0,0 mm 1,1 km/h (1 Bft) O-SO 109 0 min 0 UV-I 0 W/m 6,4 km/h (2 Bft)
01.10.2010 00:20 11,4 C 86 % 1013,3 hPa 0,0 mm 1,6 km/h (1 Bft) O-SO 103 0 min 0 UV-I 0 W/m 8,0 km/h (2 Bft)
01.10.2010 00:30 11,4 C 86 % 1013,5 hPa 0,0 mm 0,4 km/h (0 Bft) S-SO 150 0 min 0 UV-I 0 W/m 6,4 km/h (2 Bft)
01.10.2010 00:40 11,4 C 86 % 1013,6 hPa 0,0 mm 0,5 km/h (0 Bft) SO 133 0 min 0 UV-I 0 W/m 4,8 km/h (1 Bft)
01.10.2010 00:50 11,3 C 86 % 1013,4 hPa 0,0 mm 0,4 km/h (0 Bft) O-SO 112 0 min 0 UV-I 0 W/m 4,8 km/h (1 Bft)
01.10.2010 01:00 11,3 C 86 % 1013,4 hPa 0,0 mm 0,4 km/h (0 Bft) O 100 0 min 0 UV-I 0 W/m 6,4 km/h (2 Bft)
01.10.2010 01:10 11,3 C 86 % 1013,5 hPa 0,0 mm 0,1 km/h (0 Bft) O-SO 123 0 min 0 UV-I 0 W/m 4,8 km/h (1 Bft)
01.10.2010 01:20 11,3 C 87 % 1013,3 hPa 0,0 mm 0,1 km/h (0 Bft) O-SO 119 0 min 0 UV-I 0 W/m 1,6 km/h (1 Bft)
01.10.2010 01:30 11,3 C 87 % 1013,4 hPa 0,0 mm 0,0 km/h (0 Bft) O-SO 119 0 min 0 UV-I 0 W/m 1,6 km/h (1 Bft)
01.10.2010 01:40 11,3 C 87 % 1013,5 hPa 0,0 mm 0,0 km/h (0 Bft) O-SO 112 0 min 0 UV-I 0 W/m 3,2 km/h (1 Bft)
01.10.2010 01:50 11,2 C 87 % 1013,4 hPa 0,0 mm 0,0 km/h (0 Bft) O-SO 112 0 min 0 UV-I 0 W/m 3,2 km/h (1 Bft)
01.10.2010 02:00 11,2 C 88 % 1013,3 hPa 0,0 mm 0,0 km/h (0 Bft) O-SO 112 0 min 0 UV-I 0 W/m 1,6 km/h (1 Bft)
01.10.2010 02:10 11,2 C 88 % 1013,4 hPa 0,0 mm 0,0 km/h (0 Bft) O-SO 112 0 min 0 UV-I 0 W/m 1,6 km/h (1 Bft)
01.10.2010 02:20 11,2 C 88 % 1013,3 hPa 0,0 mm 0,0 km/h (0 Bft) O-SO 112 0 min 0 UV-I 0 W/m 3,2 km/h (1 Bft)
01.10.2010 02:30 11,2 C 88 % 1013,3 hPa 0,0 mm 0,0 km/h (0 Bft) O 90 0 min 0 UV-I 0 W/m 3,2 km/h (1 Bft)
01.10.2010 02:40 11,3 C 88 % 1013,4 hPa 0,0 mm 0,0 km/h (0 Bft) O 90 0 min 0 UV-I 0 W/m 4,8 km/h (1 Bft)
01.10.2010 02:50 11,3 C 89 % 1013,3 hPa 0,0 mm 0,0 km/h (0 Bft) O-SO 112 0 min 0 UV-I 0 W/m 4,8 km/h (1 Bft)
01.10.2010 03:00 11,3 C 89 % 1013,1 hPa 0,0 mm 0,0 km/h (0 Bft) O-SO 112 0 min 0 UV-I 0 W/m 4,8 km/h (1 Bft)
01.10.2010 03:10 11,3 C 89 % 1013,1 hPa 0,0 mm 1,6 km/h (1 Bft) O 90 0 min 0 UV-I 0 W/m 6,4 km/h (2 Bft)
01.10.2010 03:20 11,3 C 89 % 1013,1 hPa 0,0 mm 1,6 km/h (1 Bft) O 90 0 min 0 UV-I 0 W/m 6,4 km/h (2 Bft)
01.10.2010 03:30 11,3 C 89 % 1013,1 hPa 0,0 mm 0,0 km/h (0 Bft) O-SO 112 0 min 0 UV-I 0 W/m 3,2 km/h (1 Bft)
01.10.2010 03:40 11,3 C 89 % 1012,9 hPa 0,0 mm 0,0 km/h (0 Bft) SO 135 0 min 0 UV-I 0 W/m 4,8 km/h (1 Bft)
01.10.2010 03:50 11,3 C 90 % 1012,9 hPa 0,0 mm 1,6 km/h (1 Bft) O-SO 112 0 min 0 UV-I 0 W/m 4,8 km/h (1 Bft)
01.10.2010 04:00 11,4 C 90 % 1012,8 hPa 0,0 mm 1,6 km/h (1 Bft) O-SO 112 0 min 0 UV-I 0 W/m 8,0 km/h (2 Bft)
01.10.2010 04:10 11,4 C 90 % 1012,9 hPa 0,3 mm 0,0 km/h (0 Bft) O-SO 112 0 min 0 UV-I 0 W/m 4,8 km/h (1 Bft)
01.10.2010 04:20 11,4 C 90 % 1012,8 hPa 0,0 mm 1,6 km/h (1 Bft) O-SO 112 0 min 0 UV-I 0 W/m 6,4 km/h (2 Bft)
01.10.2010 04:30 11,4 C 90 % 1012,8 hPa 0,0 mm 0,0 km/h (0 Bft) O-SO 112 0 min 0 UV-I 0 W/m 4,8 km/h (1 Bft)
01.10.2010 04:40 11,3 C 90 % 1012,7 hPa 0,0 mm 0,0 km/h (0 Bft) O-SO 112 0 min 0 UV-I 0 W/m 4,8 km/h (1 Bft)
01.10.2010 04:50 11,3 C 90 % 1012,7 hPa 0,3 mm 1,6 km/h (1 Bft) O-SO 112 0 min 0 UV-I 0 W/m 6,4 km/h (2 Bft)
01.10.2010 05:00 11,3 C 90 % 1012,7 hPa 0,0 mm 1,6 km/h (1 Bft) O 90 0 min 0 UV-I 0 W/m 6,4 km/h (2 Bft)
01.10.2010 05:10 11,3 C 90 % 1012,7 hPa 0,0 mm 1,6 km/h (1 Bft) O-SO 112 0 min 0 UV-I 0 W/m 4,8 km/h (1 Bft)
01.10.2010 05:20 11,3 C 90 % 1012,7 hPa 0,0 mm 0,0 km/h (0 Bft) SO 135 0 min 0 UV-I 0 W/m 4,8 km/h (1 Bft)
01.10.2010 05:30 11,2 C 91 % 1012,6 hPa 0,0 mm 0,0 km/h (0 Bft) SO 135 0 min 0 UV-I 0 W/m 6,4 km/h (2 Bft)
01.10.2010 05:40 11,2 C 91 % 1012,6 hPa 0,0 mm 0,0 km/h (0 Bft) SO 135 0 min 0 UV-I 0 W/m 3,2 km/h (1 Bft)
01.10.2010 05:50 11,2 C 91 % 1012,7 hPa 0,0 mm 0,0 km/h (0 Bft) SO 135 0 min 0 UV-I 0 W/m 1,6 km/h (1 Bft)
01.10.2010 06:00 11,2 C 91 % 1012,6 hPa 0,0 mm 0,0 km/h (0 Bft) SO 135 0 min 0 UV-I 0 W/m 1,6 km/h (1 Bft)
01.10.2010 06:10 11,1 C 91 % 1012,6 hPa 0,0 mm 0,0 km/h (0 Bft) N 0 0 min 0 UV-I 0 W/m 0,0 km/h (0 Bft)
01.10.2010 06:20 11,1 C 91 % 1012,7 hPa 0,3 mm 0,0 km/h (0 Bft) N 0 0 min 0 UV-I 0 W/m 0,0 km/h (0 Bft)
01.10.2010 06:30 11,1 C 91 % 1012,6 hPa 0,0 mm 0,0 km/h (0 Bft) N 0 0 min 0 UV-I 0 W/m 0,0 km/h (0 Bft)
01.10.2010 06:40 11,1 C 91 % 1012,6 hPa 0,0 mm 0,0 km/h (0 Bft) N 0 0 min 0 UV-I 0 W/m 0,0 km/h (0 Bft)
01.10.2010 06:50 11,1 C 91 % 1012,7 hPa 0,0 mm 0,0 km/h (0 Bft) N 0 0 min 0 UV-I 0 W/m 0,0 km/h (0 Bft)
01.10.2010 07:00 11,1 C 91 % 1012,8 hPa 0,0 mm 0,0 km/h (0 Bft) N 0 0 min 0 UV-I 0 W/m 0,0 km/h (0 Bft)
01.10.2010 07:10 11,1 C 91 % 1012,7 hPa 0,0 mm 0,0 km/h (0 Bft) SO 135 0 min 0 UV-I 0 W/m 3,2 km/h (1 Bft)
01.10.2010 07:20 11,1 C 91 % 1012,8 hPa 0,0 mm 0,0 km/h (0 Bft) SO 135 0 min 0 UV-I 0 W/m 4,8 km/h (1 Bft)
01.10.2010 07:30 11,1 C 91 % 1012,8 hPa 0,0 mm 0,0 km/h (0 Bft) S 180 0 min 0 UV-I 0 W/m 1,6 km/h (1 Bft)
01.10.2010 07:40 11,1 C 91 % 1012,9 hPa 0,0 mm 0,0 km/h (0 Bft) S-SO 157 0 min 0 UV-I 0 W/m 4,8 km/h (1 Bft)
01.10.2010 07:50 11,1 C 91 % 1012,9 hPa 0,0 mm 1,6 km/h (1 Bft) O-SO 112 0 min 0 UV-I 5 W/m 6,4 km/h (2 Bft)
01.10.2010 08:00 11,1 C 91 % 1012,9 hPa 0,0 mm 0,0 km/h (0 Bft) O-SO 107 0 min 0 UV-I 12 W/m 0,0 km/h (0 Bft)
01.10.2010 08:10 11,1 C 91 % 1012,9 hPa 0,0 mm 0,0 km/h (0 Bft) O-SO 112 0 min 0 UV-I 23 W/m 4,8 km/h (1 Bft)
01.10.2010 08:20 11,1 C 92 % 1013,0 hPa 0,0 mm 0,0 km/h (0 Bft) SO 135 0 min 0 UV-I 23 W/m 4,8 km/h (1 Bft)
01.10.2010 08:30 11,2 C 92 % 1013,1 hPa 0,0 mm 0,0 km/h (0 Bft) O-SO 112 0 min 0 UV-I 11 W/m 4,8 km/h (1 Bft)
01.10.2010 08:40 11,2 C 92 % 1013,2 hPa 0,0 mm 0,0 km/h (0 Bft) N 0 0 min 0 UV-I 12 W/m 0,0 km/h (0 Bft)
01.10.2010 08:50 11,2 C 92 % 1013,2 hPa 0,0 mm 0,0 km/h (0 Bft) SO 135 0 min 0 UV-I 19 W/m 1,6 km/h (1 Bft)
01.10.2010 09:00 11,2 C 92 % 1013,2 hPa 0,0 mm 0,0 km/h (0 Bft) SO 135 0 min 0 UV-I 28 W/m 1,6 km/h (1 Bft)
01.10.2010 09:10 11,3 C 92 % 1013,3 hPa 0,0 mm 0,0 km/h (0 Bft) N 0 0 min 0 UV-I 47 W/m 0,0 km/h (0 Bft)
01.10.2010 09:20 11,3 C 92 % 1013,3 hPa 0,0 mm 0,0 km/h (0 Bft) SO 135 0 min 0 UV-I 74 W/m 1,6 km/h (1 Bft)
01.10.2010 09:30 11,4 C 92 % 1013,4 hPa 0,0 mm 0,0 km/h (0 Bft) SO 135 0 min 0 UV-I 72 W/m 4,8 km/h (1 Bft)
01.10.2010 09:40 11,6 C 92 % 1013,5 hPa 0,0 mm 0,0 km/h (0 Bft) SO 135 0 min 1 UV-I 86 W/m 3,2 km/h (1 Bft)
01.10.2010 09:50 11,7 C 93 % 1013,6 hPa 0,0 mm 0,0 km/h (0 Bft) SO 135 0 min 1 UV-I 111 W/m 1,6 km/h (1 Bft)
01.10.2010 10:00 11,8 C 93 % 1013,7 hPa 0,0 mm 0,0 km/h (0 Bft) SO 135 0 min 1 UV-I 97 W/m 3,2 km/h (1 Bft)
01.10.2010 10:10 12,0 C 93 % 1013,7 hPa 0,0 mm 0,0 km/h (0 Bft) W-SW 247 0 min 1 UV-I 95 W/m 3,2 km/h (1 Bft)
01.10.2010 10:20 12,2 C 93 % 1013,7 hPa 0,0 mm 0,0 km/h (0 Bft) W-SW 247 0 min 1 UV-I 116 W/m 4,8 km/h (1 Bft)
01.10.2010 10:30 12,2 C 93 % 1013,8 hPa 0,0 mm 0,0 km/h (0 Bft) W-SW 247 0 min 1 UV-I 153 W/m 3,2 km/h (1 Bft)
01.10.2010 10:40 12,4 C 93 % 1013,9 hPa 0,0 mm 1,6 km/h (1 Bft) W 270 0 min 1 UV-I 153 W/m 4,8 km/h (1 Bft)
01.10.2010 10:50 12,4 C 93 % 1013,8 hPa 0,0 mm 0,0 km/h (0 Bft) W 270 0 min 1 UV-I 163 W/m 4,8 km/h (1 Bft)
01.10.2010 11:00 12,6 C 93 % 1013,8 hPa 0,0 mm 0,0 km/h (0 Bft) W 270 0 min 1 UV-I 239 W/m 6,4 km/h (2 Bft)
01.10.2010 11:10 13,0 C 91 % 1013,8 hPa 0,0 mm 0,0 km/h (0 Bft) W 270 0 min 1 UV-I 230 W/m 1,6 km/h (1 Bft)
01.10.2010 11:20 13,1 C 90 % 1013,7 hPa 0,0 mm 0,0 km/h (0 Bft) W 270 0 min 1 UV-I 146 W/m 4,8 km/h (1 Bft)
01.10.2010 11:30 13,1 C 89 % 1013,7 hPa 0,0 mm 0,0 km/h (0 Bft) W 270 0 min 1 UV-I 141 W/m 3,2 km/h (1 Bft)
01.10.2010 11:40 13,1 C 89 % 1013,7 hPa 0,0 mm 0,0 km/h (0 Bft) W 270 0 min 1 UV-I 207 W/m 1,6 km/h (1 Bft)
01.10.2010 11:50 13,3 C 87 % 1013,7 hPa 0,0 mm 0,0 km/h (0 Bft) W 270 0 min 1 UV-I 220 W/m 4,8 km/h (1 Bft)
01.10.2010 12:00 13,4 C 85 % 1013,7 hPa 0,0 mm 0,0 km/h (0 Bft) W 270 0 min 2 UV-I 207 W/m 1,6 km/h (1 Bft)
01.10.2010 12:10 13,5 C 85 % 1013,7 hPa 0,0 mm 0,0 km/h (0 Bft) W 270 0 min 2 UV-I 234 W/m 4,8 km/h (1 Bft)
01.10.2010 12:20 13,7 C 83 % 1013,7 hPa 0,0 mm 0,0 km/h (0 Bft) W 270 0 min 2 UV-I 257 W/m 4,8 km/h (1 Bft)
01.10.2010 12:30 13,9 C 83 % 1013,7 hPa 0,0 mm 0,0 km/h (0 Bft) W 270 0 min 2 UV-I 246 W/m 3,2 km/h (1 Bft)
01.10.2010 12:40 14,1 C 81 % 1013,7 hPa 0,0 mm 0,0 km/h (0 Bft) W 270 0 min 2 UV-I 211 W/m 4,8 km/h (1 Bft)
01.10.2010 12:50 14,1 C 82 % 1013,5 hPa 0,0 mm 0,0 km/h (0 Bft) W 270 0 min 1 UV-I 200 W/m 3,2 km/h (1 Bft)
01.10.2010 13:00 14,3 C 83 % 1013,4 hPa 0,0 mm 0,0 km/h (0 Bft) SO 135 0 min 2 UV-I 272 W/m 4,8 km/h (1 Bft)
01.10.2010 13:10 14,7 C 79 % 1013,4 hPa 0,0 mm 0,0 km/h (0 Bft) SO 135 10 min 3 UV-I 561 W/m 1,6 km/h (1 Bft)
01.10.2010 13:20 14,6 C 79 % 1013,4 hPa 0,0 mm 0,0 km/h (0 Bft) S-SW 202 0 min 2 UV-I 253 W/m 3,2 km/h (1 Bft)
01.10.2010 13:30 14,4 C 81 % 1013,2 hPa 0,0 mm 0,0 km/h (0 Bft) S-SW 202 0 min 2 UV-I 271 W/m 3,2 km/h (1 Bft)
01.10.2010 13:40 14,7 C 78 % 1013,2 hPa 0,0 mm 0,0 km/h (0 Bft) S-SW 202 0 min 2 UV-I 258 W/m 3,2 km/h (1 Bft)
01.10.2010 13:50 14,9 C 81 % 1013,0 hPa 0,0 mm 0,0 km/h (0 Bft) O-SO 112 0 min 2 UV-I 243 W/m 4,8 km/h (1 Bft)
01.10.2010 14:00 15,1 C 82 % 1013,0 hPa 0,0 mm 1,6 km/h (1 Bft) O 90 0 min 2 UV-I 265 W/m 8,0 km/h (2 Bft)
01.10.2010 14:10 15,1 C 79 % 1013,0 hPa 0,0 mm 1,6 km/h (1 Bft) O-SO 112 10 min 2 UV-I 381 W/m 8,0 km/h (2 Bft)
01.10.2010 14:20 15,1 C 78 % 1013,2 hPa 0,0 mm 1,6 km/h (1 Bft) O-SO 112 0 min 2 UV-I 264 W/m 6,4 km/h (2 Bft)
01.10.2010 14:30 15,1 C 78 % 1013,2 hPa 0,0 mm 1,6 km/h (1 Bft) O-SO 112 0 min 1 UV-I 200 W/m 6,4 km/h (2 Bft)
01.10.2010 14:40 15,1 C 80 % 1013,0 hPa 0,0 mm 1,6 km/h (1 Bft) SO 135 0 min 2 UV-I 290 W/m 8,0 km/h (2 Bft)
01.10.2010 14:50 15,4 C 79 % 1013,0 hPa 0,0 mm 1,6 km/h (1 Bft) SO 135 10 min 2 UV-I 406 W/m 6,4 km/h (2 Bft)
01.10.2010 15:00 15,8 C 78 % 1013,0 hPa 0,0 mm 1,6 km/h (1 Bft) O 90 0 min 2 UV-I 278 W/m 6,4 km/h (2 Bft)
01.10.2010 15:10 15,3 C 80 % 1013,0 hPa 0,0 mm 3,2 km/h (1 Bft) O 90 10 min 2 UV-I 302 W/m 8,0 km/h (2 Bft)
01.10.2010 15:20 15,6 C 80 % 1012,7 hPa 0,0 mm 4,8 km/h (1 Bft) O-SO 112 10 min 2 UV-I 392 W/m 9,7 km/h (2 Bft)
01.10.2010 15:30 15,8 C 80 % 1012,8 hPa 0,0 mm 4,8 km/h (1 Bft) O 90 10 min 2 UV-I 534 W/m 14,5 km/h (3 Bft)
01.10.2010 15:40 15,7 C 80 % 1012,9 hPa 0,0 mm 3,2 km/h (1 Bft) O-SO 112 0 min 2 UV-I 213 W/m 8,0 km/h (2 Bft)
01.10.2010 15:50 15,2 C 80 % 1012,6 hPa 0,0 mm 4,8 km/h (1 Bft) O 90 10 min 2 UV-I 322 W/m 14,5 km/h (3 Bft)
01.10.2010 16:00 15,1 C 81 % 1012,7 hPa 0,0 mm 2,6 km/h (1 Bft) O-SO 106 0 min 1 UV-I 135 W/m 4,8 km/h (1 Bft)
01.10.2010 16:10 15,1 C 81 % 1012,6 hPa 0,0 mm 1,6 km/h (1 Bft) O-SO 112 0 min 1 UV-I 146 W/m 9,7 km/h (2 Bft)
01.10.2010 16:20 14,9 C 81 % 1012,6 hPa 0,0 mm 4,8 km/h (1 Bft) O 90 0 min 1 UV-I 171 W/m 14,5 km/h (3 Bft)
01.10.2010 16:30 14,7 C 81 % 1012,7 hPa 0,0 mm 3,2 km/h (1 Bft) O-SO 112 0 min 1 UV-I 127 W/m 12,9 km/h (3 Bft)
01.10.2010 16:40 14,4 C 82 % 1012,5 hPa 0,0 mm 4,8 km/h (1 Bft) O 90 0 min 1 UV-I 91 W/m 11,3 km/h (2 Bft)
01.10.2010 16:50 14,2 C 83 % 1012,5 hPa 0,0 mm 3,2 km/h (1 Bft) O 90 0 min 1 UV-I 83 W/m 11,3 km/h (2 Bft)
01.10.2010 17:00 14,1 C 84 % 1012,5 hPa 0,0 mm 4,8 km/h (1 Bft) O-SO 112 10 min 1 UV-I 309 W/m 11,3 km/h (2 Bft)
01.10.2010 17:10 14,5 C 83 % 1012,3 hPa 0,0 mm 3,2 km/h (1 Bft) O 90 10 min 1 UV-I 343 W/m 9,7 km/h (2 Bft)
01.10.2010 17:20 14,4 C 83 % 1012,4 hPa 0,0 mm 4,8 km/h (1 Bft) O 90 10 min 1 UV-I 211 W/m 12,9 km/h (3 Bft)
01.10.2010 17:30 14,5 C 82 % 1012,3 hPa 0,0 mm 4,8 km/h (1 Bft) O 90 10 min 1 UV-I 241 W/m 11,3 km/h (2 Bft)
01.10.2010 17:40 14,4 C 82 % 1012,3 hPa 0,0 mm 4,8 km/h (1 Bft) O 90 10 min 1 UV-I 142 W/m 14,5 km/h (3 Bft)
01.10.2010 17:50 14,2 C 83 % 1012,4 hPa 0,0 mm 3,2 km/h (1 Bft) O 90 10 min 0 UV-I 125 W/m 11,3 km/h (2 Bft)
01.10.2010 18:00 14,0 C 83 % 1012,3 hPa 0,0 mm 4,8 km/h (1 Bft) O-SO 112 10 min 0 UV-I 121 W/m 14,5 km/h (3 Bft)
01.10.2010 18:10 13,8 C 84 % 1012,2 hPa 0,0 mm 3,2 km/h (1 Bft) O 90 10 min 0 UV-I 74 W/m 11,3 km/h (2 Bft)
01.10.2010 18:20 13,6 C 84 % 1012,3 hPa 0,0 mm 3,2 km/h (1 Bft) O 90 0 min 0 UV-I 30 W/m 8,0 km/h (2 Bft)
01.10.2010 18:30 13,3 C 85 % 1012,3 hPa 0,0 mm 1,6 km/h (1 Bft) O 90 0 min 0 UV-I 18 W/m 8,0 km/h (2 Bft)
01.10.2010 18:40 13,2 C 86 % 1012,3 hPa 0,0 mm 1,6 km/h (1 Bft) O 90 0 min 0 UV-I 14 W/m 6,4 km/h (2 Bft)
01.10.2010 18:50 13,1 C 86 % 1012,3 hPa 0,0 mm 1,6 km/h (1 Bft) O 90 0 min 0 UV-I 11 W/m 4,8 km/h (1 Bft)
01.10.2010 19:00 13,1 C 85 % 1012,3 hPa 0,0 mm 1,6 km/h (1 Bft) O-SO 112 0 min 0 UV-I 5 W/m 6,4 km/h (2 Bft)
01.10.2010 19:10 12,9 C 85 % 1012,4 hPa 0,0 mm 1,6 km/h (1 Bft) O-SO 112 0 min 0 UV-I 0 W/m 11,3 km/h (2 Bft)
01.10.2010 19:20 12,8 C 85 % 1012,5 hPa 0,0 mm 1,6 km/h (1 Bft) O-SO 112 0 min 0 UV-I 0 W/m 8,0 km/h (2 Bft)
01.10.2010 19:30 12,7 C 86 % 1012,4 hPa 0,0 mm 1,6 km/h (1 Bft) O-SO 112 0 min 0 UV-I 0 W/m 6,4 km/h (2 Bft)
01.10.2010 19:40 12,5 C 86 % 1012,5 hPa 0,0 mm 3,2 km/h (1 Bft) O 90 0 min 0 UV-I 0 W/m 8,0 km/h (2 Bft)
01.10.2010 19:50 12,3 C 86 % 1012,5 hPa 0,0 mm 1,6 km/h (1 Bft) O-SO 112 0 min 0 UV-I 0 W/m 9,7 km/h (2 Bft)
01.10.2010 20:00 12,2 C 87 % 1012,6 hPa 0,0 mm 3,2 km/h (1 Bft) O-SO 112 0 min 0 UV-I 0 W/m 6,4 km/h (2 Bft)
01.10.2010 20:10 12,1 C 87 % 1012,5 hPa 0,0 mm 3,2 km/h (1 Bft) O 90 0 min 0 UV-I 0 W/m 6,4 km/h (2 Bft)
01.10.2010 20:20 12,1 C 87 % 1012,5 hPa 0,0 mm 1,6 km/h (1 Bft) O-SO 112 0 min 0 UV-I 0 W/m 9,7 km/h (2 Bft)
01.10.2010 20:30 11,9 C 88 % 1012,6 hPa 0,0 mm 1,6 km/h (1 Bft) O-SO 112 0 min 0 UV-I 0 W/m 6,4 km/h (2 Bft)
01.10.2010 20:40 11,8 C 88 % 1012,5 hPa 0,0 mm 3,2 km/h (1 Bft) O-SO 112 0 min 0 UV-I 0 W/m 9,7 km/h (2 Bft)
01.10.2010 20:50 11,8 C 88 % 1012,5 hPa 0,0 mm 1,6 km/h (1 Bft) O-SO 112 0 min 0 UV-I 0 W/m 8,0 km/h (2 Bft)
01.10.2010 21:00 11,8 C 88 % 1012,5 hPa 0,0 mm 3,2 km/h (1 Bft) O-SO 112 0 min 0 UV-I 0 W/m 11,3 km/h (2 Bft)
01.10.2010 21:10 11,7 C 89 % 1012,6 hPa 0,0 mm 3,2 km/h (1 Bft) O-SO 112 0 min 0 UV-I 0 W/m 14,5 km/h (3 Bft)
01.10.2010 21:20 11,7 C 89 % 1012,5 hPa 0,0 mm 3,2 km/h (1 Bft) O 90 0 min 0 UV-I 0 W/m 11,3 km/h (2 Bft)
01.10.2010 21:30 11,7 C 89 % 1012,5 hPa 0,0 mm 3,2 km/h (1 Bft) O-SO 112 0 min 0 UV-I 0 W/m 11,3 km/h (2 Bft)
01.10.2010 21:40 11,7 C 89 % 1012,5 hPa 0,0 mm 4,8 km/h (1 Bft) O-SO 112 0 min 0 UV-I 0 W/m 14,5 km/h (3 Bft)
01.10.2010 21:50 11,7 C 89 % 1012,5 hPa 0,0 mm 4,8 km/h (1 Bft) O-SO 112 0 min 0 UV-I 0 W/m 11,3 km/h (2 Bft)
01.10.2010 22:00 11,7 C 89 % 1012,6 hPa 0,0 mm 1,6 km/h (1 Bft) O-SO 112 0 min 0 UV-I 0 W/m 9,7 km/h (2 Bft)
01.10.2010 22:10 11,6 C 89 % 1012,6 hPa 0,0 mm 0,0 km/h (0 Bft) O-SO 112 0 min 0 UV-I 0 W/m 8,0 km/h (2 Bft)
01.10.2010 22:20 11,6 C 89 % 1012,6 hPa 0,0 mm 1,6 km/h (1 Bft) O-SO 112 0 min 0 UV-I 0 W/m 6,4 km/h (2 Bft)
01.10.2010 22:30 11,4 C 89 % 1012,4 hPa 0,0 mm 1,6 km/h (1 Bft) O 90 0 min 0 UV-I 0 W/m 4,8 km/h (1 Bft)
01.10.2010 22:40 11,3 C 89 % 1012,5 hPa 0,0 mm 1,6 km/h (1 Bft) O 90 0 min 0 UV-I 0 W/m 4,8 km/h (1 Bft)
01.10.2010 22:50 11,3 C 90 % 1012,5 hPa 0,0 mm 1,6 km/h (1 Bft) SO 135 0 min 0 UV-I 0 W/m 8,0 km/h (2 Bft)
01.10.2010 23:00 11,3 C 90 % 1012,5 hPa 0,0 mm 3,2 km/h (1 Bft) SO 135 0 min 0 UV-I 0 W/m 11,3 km/h (2 Bft)
01.10.2010 23:10 11,4 C 90 % 1012,5 hPa 0,0 mm 3,2 km/h (1 Bft) SO 135 0 min 0 UV-I 0 W/m 11,3 km/h (2 Bft)
01.10.2010 23:20 11,4 C 90 % 1012,4 hPa 0,0 mm 1,6 km/h (1 Bft) SO 135 0 min 0 UV-I 0 W/m 9,7 km/h (2 Bft)
01.10.2010 23:30 11,4 C 90 % 1012,5 hPa 0,0 mm 0,0 km/h (0 Bft) O-SO 112 0 min 0 UV-I 0 W/m 6,4 km/h (2 Bft)
01.10.2010 23:40 11,4 C 90 % 1012,3 hPa 0,0 mm 1,6 km/h (1 Bft) O-SO 112 0 min 0 UV-I 0 W/m 8,0 km/h (2 Bft)
01.10.2010 23:50 11,3 C 90 % 1012,4 hPa 0,0 mm 1,6 km/h (1 Bft) SO 135 0 min 0 UV-I 0 W/m 8,0 km/h (2 Bft)
_ Min-Zeit 06:00 13:40 18:10 - 01:30 - - - - - 06:10
Minimum _ 11,1 C 78 % 1012,2 hPa - 0,0 km/h (0 Bft) - - - - - 0,0 km/h (0 Bft)
_ Max-Zeit 15:30 09:50 10:40 04:10 15:20 - - 13:10 13:10 13:10 15:30
Maximum _ 16,0 C 93 % 1013,9 hPa 0,3 mm 4,8 km/h
O-SO (1 Bft)
- - 10 min 3 UV-I 561 W/m 14,5 km/h
SO (3 Bft)
Durchschnitt _ 12,4 C 87 % 1012,9 hPa #0,8 mm 1,3 km/h (1 Bft) O-SO - #2:30 h 1 UV-I 176 W/m 6,1 km/h (2 Bft)